Home   Weather   Newman   Past weeks

Flag for Australia Past Weather in Newman, Western Australia, Australia — Yesterday and Last 2 Weeks

Now
63 °F

Mild.


Feels Like: 63 °F
Forecast: 54 / 89 °F
Wind: 7 mph from South

Location: Newman Aerodrome

Current Time: Sep 26, 2016 at 11:48:56 PM

Latest Report: Sep 26, 2016 at 11:00 PM


Visibility: N/A

Pressure: 29.93 "Hg (28.07 "Hg at 546m altitude)

Humidity: 22%

Dew Point: 24 °F

Location of NewmanLocation

Past Weather in Newman — Graph

°F

Newman Temperature Yesterday

Maximum temperature yesterday: 88 °F (at 3:00 PM)
Minimum temperature yesterday: 50 °F (at 6:00 AM)
Average temperature yesterday: 69 °F

High & Low Weather Summary for the Past Weeks

 TemperatureHumidityPressure
High89 °F (Sep 12, 3:00 PM)60% (Sep 23, 3:00 AM)30.11 "Hg (Sep 23, 3:00 AM)
Low43 °F (Sep 21, 6:00 AM)9% (Sep 12, 3:00 PM)29.73 "Hg (Sep 25, 5:00 PM)
Average67 °F25%29.90 "Hg
* Reported Sep 11 9:00 PM — Sep 26 9:00 PM, Newman, Weather by CustomWeather, © 2016

Note: Actual official high and low records may vary slightly from our data, if they occured in-between our weather recording intervals... More about our weather records

Advertising

Newman Weather History for the Previous 24 Hours

Scroll right to see more
 ConditionsComfort  
Time TempWeatherWind HumidityBarometerVisibility
9:00 PM
Mon, Sep 26
66 °FMild.6 mph20%29.93 "HgN/A
8:00 PM69 °FMild.6 mph17%29.92 "HgN/A
6:00 PM79 °FPleasantly warm.9 mph11%29.88 "HgN/A
5:00 PM82 °FPleasantly warm.13 mph10%29.85 "HgN/A
3:00 PM83 °FPleasantly warm.12 mph10%29.83 "HgN/A
2:00 PM82 °FPleasantly warm.13 mph11%29.84 "HgN/A
12:00 PM79 °FPleasantly warm.15 mph13%29.89 "HgN/A
11:00 AM76 °FMild.16 mph14%29.92 "HgN/A
9:00 AM70 °FMild.18 mph17%29.95 "Hg4 mi
8:00 AM67 °FMild.17 mph19%29.93 "HgN/A
6:00 AM55 °FPassing clouds.7 mph28%29.90 "HgN/A
5:00 AM55 °FCool.6 mph28%29.88 "HgN/A
3:00 AM56 °FRefreshingly cool.6 mph27%29.85 "HgN/A
2:00 AM57 °FRefreshingly cool.6 mph28%29.84 "HgN/A
12:00 AM61 °FRefreshingly cool.7 mph26%29.85 "HgN/A
11:00 PM
Sun, Sep 25
62 °FRefreshingly cool.6 mph25%29.85 "HgN/A
Weather by CustomWeather, © 2016

See weather overviewHow to use our weather pages